TimeCST,TemperatureF,Dew PointF,Humidity,Sea Level PressureIn,VisibilityMPH,Wind Direction,Wind SpeedMPH,Gust SpeedMPH,PrecipitationIn,Events,Conditions,WindDirDegrees,DateUTC
12:53 AM,50.0,39.9,68,29.73,10.0,SSW,15.0,-,N/A,,Clear,210,2012-12-15 06:53:00
1:53 AM,50.0,37.9,63,29.73,10.0,SSW,17.3,-,N/A,,Clear,210,2012-12-15 07:53:00
2:53 AM,48.9,37.0,64,29.72,10.0,SW,19.6,-,N/A,,Clear,220,2012-12-15 08:53:00
3:53 AM,46.9,36.0,66,29.73,10.0,SW,17.3,-,N/A,,Clear,230,2012-12-15 09:53:00
4:53 AM,46.0,35.1,66,29.73,10.0,SW,17.3,-,N/A,,Clear,220,2012-12-15 10:53:00
5:53 AM,45.0,34.0,65,29.75,10.0,SW,15.0,-,N/A,,Clear,220,2012-12-15 11:53:00
6:53 AM,44.1,34.0,68,29.77,10.0,SW,16.1,-,N/A,,Clear,220,2012-12-15 12:53:00
8:53 AM,45.0,36.0,71,29.80,10.0,SW,11.5,-,N/A,,Clear,220,2012-12-15 14:53:00
9:53 AM,51.1,35.1,54,29.81,10.0,WSW,16.1,-,N/A,,Clear,240,2012-12-15 15:53:00
10:53 AM,53.1,35.1,50,29.83,10.0,WSW,17.3,-,N/A,,Clear,250,2012-12-15 16:53:00
11:53 AM,55.9,35.1,45,29.79,10.0,WSW,19.6,24.2,N/A,,Clear,250,2012-12-15 17:53:00
12:53 PM,57.0,34.0,42,29.76,10.0,WSW,18.4,-,N/A,,Clear,250,2012-12-15 18:53:00
1:53 PM,59.0,34.0,39,29.74,10.0,WSW,17.3,-,N/A,,Clear,250,2012-12-15 19:53:00
2:53 PM,60.1,34.0,38,29.72,10.0,SW,17.3,-,N/A,,Clear,230,2012-12-15 20:53:00
3:53 PM,60.1,36.0,41,29.70,10.0,SW,12.7,-,N/A,,Clear,220,2012-12-15 21:53:00
4:53 PM,59.0,33.1,38,29.72,10.0,SW,15.0,-,N/A,,Clear,220,2012-12-15 22:53:00
5:53 PM,55.0,34.0,45,29.74,10.0,SW,12.7,-,N/A,,Clear,220,2012-12-15 23:53:00
6:53 PM,55.0,35.1,47,29.75,10.0,SW,12.7,-,N/A,,Clear,220,2012-12-16 00:53:00
7:53 PM,53.1,36.0,52,29.76,10.0,SW,10.4,-,N/A,,Clear,220,2012-12-16 01:53:00
8:53 PM,48.9,37.0,64,29.76,10.0,SSW,9.2,-,N/A,,Clear,210,2012-12-16 02:53:00
9:53 PM,48.0,37.0,66,29.75,10.0,SSW,9.2,-,N/A,,Clear,210,2012-12-16 03:53:00
10:53 PM,48.0,37.0,66,29.75,10.0,SSW,9.2,-,N/A,,Clear,210,2012-12-16 04:53:00
11:53 PM,48.0,37.0,66,29.75,10.0,SSW,9.2,-,N/A,,Clear,210,2012-12-16 05:53:00